Location: Newark
(52.3500°N, 175.9667°E)
Time: 21:03:09
(UTC+00:00)

Altair - Pass Details

Date: 23 April 2021
Orbit: 1501 x 1683 km, 47.2° (Epoch: 05 May)

Event Time Altitude Azimuth Distance (km) Brightness Sun altitude
Rises 21:40:05 0° 279° (W) 4,820 9.7 39.9°
Reaches altitude 10° 21:43:20 10° 275° (W) 3,808 9.3 40.3°
Maximum altitude 21:52:31 53° 202° (SSW) 1,854 8.7 41.4°
Drops below altitude 10° 22:01:24 10° 129° (SE) 3,676 10.6 42.4°
Sets 22:04:28 0° 125° (SE) 4,643 10.8 42.7°
